Location: ??????????
(44.2167°N, 135.5333°E)
Time: 14:45:06
(UTC+00:00)

MetOp-A - Pass Details

Date: 15 June 2025
Orbit: 521 x 774 km, 98.3° (Epoch: 15 July)

Event Time Altitude Azimuth Distance (km) Brightness Sun altitude
Exits shadow 14:28:17 40° 229° (SW) 1,027 4.4 -22.1°
Maximum altitude 14:29:11 45° 260° (W) 944 4.4 -22.1°
Drops below altitude 10° 14:33:36 10° 334° (NNW) 2,090 7.2 -22.2°
Sets 14:35:50 0° 340° (NNW) 2,964 8.4 -22.2°
